Hobbs, NM

11:50 PM MDT on April 26, 2018 (GMT -0600)
Lea County Regional

Weather History for KHOB - September, 2012

Change the Weather History Date:

Friday, September 7, 2012

  Actual Average Record
Temperature  
Mean Temperature 81 °F -  
Max Temperature 96 °F 87 °F 102 °F (2000)
Min Temperature 64 °F 61 °F 50 °F (1952)
Cooling Degree Days 16    
Growing Degree Days 31 (Base 50)    
Moisture  
Dew Point 54 °F    
Average Humidity 47    
Maximum Humidity 60    
Minimum Humidity 19    
Precipitation  
Precipitation 0.00 in - - ()
Sea Level Pressure  
Sea Level Pressure 30.04 in    
Wind  
Wind Speed 9 mph (SSE)    
Max Wind Speed 29 mph    
Max Gust Speed 36 mph    
Visibility 10 miles    
Events Thunderstorm    
Averages and records for this station are not official NWS values.
T = Trace of Precipitation, MM = Missing Value Source: NWS Daily Summary

Daily Weather History Graph

Daily Weather History Graph

Search for Another Location

Airport or City:

Astronomy

Sep. 07, 2012 Rise Set
Actual Time 6:31 AM MDT 7:08 PM MDT
Civil Twilight 6:06 AM MDT 7:33 PM MDT
Nautical Twilight 5:37 AM MDT 8:03 PM MDT
Astronomical Twilight 5:07 AM MDT 8:32 PM MDT
Moon 11:30 PM MDT (9/7) 1:02 PM MDT (9/7)
Length of Visible Light 13h 26m
Length of Day
12h 37m
Waning Gibbous, 58% of the Moon is Illuminated
Sep 7
Waning Gibbous
Sep 8
Last Quarter
Sep 15
New
Sep 22
First Quarter
Sep 29
Full

Hourly Weather History & Observations

Time (MDT) Temp. Heat Index Dew Point Humidity Pressure Visibility Wind Dir Wind Speed Gust Speed Precip Events Conditions
12:35 AM 73.4 °F - 57.2 °F 57% 30.05 in 10.0 mi SSE 5.8 mph - N/A   Clear
12:55 AM 73.4 °F - 57.2 °F 57% 30.05 in 10.0 mi South 4.6 mph - N/A   Clear
1:15 AM 71.6 °F - 57.2 °F 60% 30.04 in 10.0 mi SSE 4.6 mph - N/A   Clear
1:35 AM 71.6 °F - 57.2 °F 60% 30.04 in 10.0 mi South 6.9 mph - N/A   Clear
1:55 AM 71.6 °F - 57.2 °F 60% 30.04 in 10.0 mi South 5.8 mph - N/A   Clear
2:15 AM 71.6 °F - 57.2 °F 60% 30.03 in 10.0 mi South 6.9 mph - N/A   Clear
2:35 AM 71.6 °F - 55.4 °F 57% 30.03 in 10.0 mi South 6.9 mph - N/A   Clear
2:55 AM 71.6 °F - 53.6 °F 53% 30.02 in 10.0 mi South 6.9 mph - N/A   Clear
3:15 AM 69.8 °F - 53.6 °F 56% 30.01 in 10.0 mi South 6.9 mph - N/A   Clear
3:35 AM 69.8 °F - 53.6 °F 56% 30.01 in 10.0 mi South 6.9 mph - N/A   Clear
3:55 AM 71.6 °F - 53.6 °F 53% 30.01 in 10.0 mi South 6.9 mph - N/A   Clear
4:15 AM 69.8 °F - 53.6 °F 56% 30.01 in 10.0 mi South 6.9 mph - N/A   Clear
4:35 AM 68.0 °F - 53.6 °F 60% 30.01 in 10.0 mi South 6.9 mph - N/A   Clear
4:55 AM 68.0 °F - 51.8 °F 56% 30.01 in 10.0 mi South 6.9 mph - N/A   Clear
5:50 AM 66.2 °F - 50.0 °F 56% 30.02 in 10.0 mi SW 5.8 mph - N/A   Clear
6:50 AM 66.2 °F - 51.8 °F 60% 30.02 in 10.0 mi South 5.8 mph - N/A   Clear
7:50 AM 73.4 °F - 51.8 °F 47% 30.04 in 10.0 mi South 8.1 mph - N/A   Clear
8:50 AM 80.6 °F - 51.8 °F 37% 30.05 in 10.0 mi South 6.9 mph - N/A   Clear
9:50 AM 86.0 °F 84.2 °F 53.6 °F 33% 30.05 in 10.0 mi South 5.8 mph - N/A   Clear
10:50 AM 91.4 °F 89.1 °F 53.6 °F 28% 30.04 in 10.0 mi SSW 4.6 mph - N/A   Clear
11:50 AM 95.0 °F - 51.8 °F 23% 30.02 in 10.0 mi SSW 5.8 mph - N/A   Partly Cloudy
12:50 PM 95.0 °F - 48.2 °F 20% 30.00 in 10.0 mi Variable 5.8 mph - N/A   Scattered Clouds
1:50 PM 96.8 °F - 48.2 °F 19% 29.98 in 10.0 mi ESE 9.2 mph - N/A   Scattered Clouds
2:45 PM 95.0 °F - 50.0 °F 22% 29.96 in 10.0 mi South 5.8 mph - N/A   Scattered Clouds
3:45 PM 89.6 °F 88.9 °F 59.0 °F 36% 29.95 in 10.0 mi SSE 8.1 mph - N/A   Scattered Clouds
4:06 PM 95.0 °F - 51.8 °F 23% 29.95 in 10.0 mi Variable 4.6 mph - N/A Thunderstorm Thunderstorm
4:50 PM 89.6 °F 87.7 °F 55.4 °F 31% 29.96 in 8.0 mi North 17.3 mph 28.8 mph N/A   Mostly Cloudy
5:50 PM 80.6 °F 81.1 °F 59.0 °F 48% 30.00 in 10.0 mi NW 18.4 mph 24.2 mph N/A   Mostly Cloudy
6:15 PM 82.4 °F 82.0 °F 57.2 °F 42% 29.98 in 10.0 mi NNW 25.3 mph 33.4 mph N/A Thunderstorm Partly Cloudy
6:35 PM 82.4 °F 81.7 °F 55.4 °F 39% 29.98 in 10.0 mi North 26.5 mph 33.4 mph N/A   Clear
6:55 PM 80.6 °F 80.5 °F 55.4 °F 42% 29.99 in 10.0 mi North 21.9 mph 29.9 mph N/A   Clear
7:15 PM 80.6 °F 80.5 °F 55.4 °F 42% 30.00 in 10.0 mi North 19.6 mph 26.5 mph N/A   Clear
7:35 PM 78.8 °F - 57.2 °F 47% 30.02 in 10.0 mi NNE 17.3 mph 27.6 mph N/A   Clear
7:55 PM 77.0 °F - 59.0 °F 54% 30.03 in 10.0 mi NNE 19.6 mph 24.2 mph N/A   Clear
8:15 PM 77.0 °F - 57.2 °F 50% 30.05 in 10.0 mi NNE 20.7 mph 25.3 mph N/A   Clear
8:35 PM 77.0 °F - 57.2 °F 50% 30.09 in 10.0 mi North 19.6 mph 29.9 mph N/A   Clear
8:55 PM 75.2 °F - 55.4 °F 50% 30.12 in 10.0 mi North 19.6 mph 31.1 mph N/A   Clear
9:55 PM 69.8 °F - 50.0 °F 49% 30.17 in 10.0 mi North 28.8 mph 35.7 mph N/A   Clear
10:55 PM 68.0 °F - 50.0 °F 52% 30.20 in 10.0 mi NNE 20.7 mph 28.8 mph N/A   Clear
11:15 PM 66.2 °F - 50.0 °F 56% 30.21 in 10.0 mi NNE 26.5 mph 34.5 mph N/A   Clear
11:35 PM 66.2 °F - 48.2 °F 52% 30.22 in 10.0 mi NNE 23.0 mph 33.4 mph N/A   Clear
11:55 PM 64.4 °F - 50.0 °F 59% 30.23 in 10.0 mi NNE 23.0 mph 31.1 mph N/A   Partly Cloudy